User: anonymous   Login
Location: Unspecified
(0.0000°N, 0.0000°E)
Time: 01:49:27
(UTC+00:00)
Language:

TBA - TO BE ASSIGNED - Orbit

View from above orbital plane
View from above orbital plane
View from above satellite
View from above satellite

Ground track
Ground track

The orbit is defined by the following mean orbital elements,

1 68705U          26145.58335647 +.00000000 +00000-0 +20446-2 0 00006
2 68705  53.1593  37.3241 0000934 124.6262 106.7386 15.35350968    09
Epoch (UTC): 25 May 2026 14:00:01
Eccentricity: 0.0000934
inclination: 53.1593°
perigee height: 459 km
apogee height: 461 km
right ascension of ascending node: 37.3241°
argument of perigee: 124.6262°
revolutions per day: 15.35350968
mean anomaly at epoch: 106.7386°

The dashed part of the orbit path shows where the satellite is in the earth's shadow,  

DLR